| time (UTC) | temp F | wind direction | speed knots | gust knots | rain 1hr in | rain 24hr in | rain mn in | humidity % | barometer mb |
| 20260506203222 | 68 | 190 | 12.2 | 0.0 | 0.00 | 0.00 | 0.00 | 49 | 1006.0 |
| 20260506202228 | 68 | 190 | 12.2 | 0.0 | 0.00 | 0.00 | 0.00 | 45 | |
| 20260506200239 | 68 | 190 | 11.3 | 0.0 | 0.00 | 0.00 | 0.00 | 49 | 1006.0 |
| 20260506193232 | 70 | 190 | 13.0 | 0.0 | 0.00 | 0.00 | 0.00 | 46 | 1006.0 |
| 20260506192404 | 70 | 190 | 10.4 | 0.0 | 0.00 | 0.00 | 0.00 | 46 | |
| 20260506190253 | 70 | 190 | 8.7 | 0.0 | 0.00 | 0.00 | 0.00 | 46 | 1005.0 |
| 20260506183245 | 70 | 190 | 8.7 | 0.0 | 0.00 | 0.00 | 0.00 | 46 | 1005.0 |
| 20260506182301 | 72 | 180 | 7.8 | 0.0 | 0.00 | 0.00 | 0.00 | 40 | |
| 20260506180247 | 72 | 180 | 7.8 | 0.0 | 0.00 | 0.00 | 0.00 | 43 | 1005.0 |
| 20260506173238 | 72 | 180 | 8.7 | 0.0 | 0.00 | 0.00 | 0.00 | 43 | 1005.0 |
| 20260506172226 | 72 | 190 | 12.2 | 0.0 | 0.00 | 0.00 | 0.00 | 40 | |
| 20260506170233 | 72 | 190 | 11.3 | 0.0 | 0.00 | 0.00 | 0.00 | 43 | 1005.0 |
| 20260506163238 | 73 | 190 | 10.4 | 0.0 | 0.00 | 0.00 | 0.00 | 43 | 1006.0 |
| 20260506162428 | 73 | 190 | 12.2 | 0.0 | 0.00 | 0.00 | 0.00 | 40 | |
| 20260506160247 | 73 | 190 | 11.3 | 21.7 | 0.00 | 0.00 | 0.00 | 40 | 1006.0 |
| 20260506153238 | 73 | 190 | 13.0 | 0.0 | 0.00 | 0.00 | 0.00 | 40 | 1006.0 |
| 20260506152244 | 73 | 200 | 12.2 | 0.0 | 0.00 | 0.00 | 0.00 | 40 | |
| 20260506150246 | 73 | 190 | 11.3 | 0.0 | 0.00 | 0.00 | 0.00 | 43 | 1006.0 |
| 20260506143238 | 75 | 210 | 13.0 | 0.0 | 0.00 | 0.00 | 0.00 | 41 | 1007.0 |
| 20260506142211 | 73 | 210 | 10.4 | 0.0 | 0.00 | 0.00 | 0.00 | 40 | |
| 20260506140239 | 73 | 210 | 8.7 | 0.0 | 0.00 | 0.00 | 0.00 | 43 | 1007.0 |
| 20260506133238 | 75 | 220 | 13.0 | 0.0 | 0.00 | 0.00 | 0.00 | 41 | 1007.0 |
| 20260506132211 | 73 | 220 | 10.4 | 0.0 | 0.00 | 0.00 | 0.00 | 40 | |
| 20260506130234 | 73 | 220 | 8.7 | 0.0 | 0.00 | 0.00 | 0.00 | 46 | 1007.0 |
| 20260506123230 | 73 | 200 | 10.4 | 0.0 | 0.00 | 0.00 | 0.00 | 40 | 1007.0 |
| 20260506122210 | 75 | 220 | 12.2 | 0.0 | 0.00 | 0.00 | 0.00 | 36 | |
| 20260506120239 | 75 | 220 | 13.0 | 0.0 | 0.00 | 0.00 | 0.00 | 41 | 1007.0 |
| 20260506113230 | 73 | 230 | 14.8 | 0.0 | 0.00 | 0.00 | 0.00 | 43 | 1007.0 |
| 20260506112157 | 73 | 240 | 13.9 | 0.0 | 0.00 | 0.00 | 0.00 | 43 | |
| 20260506110233 | 73 | 230 | 13.0 | 0.0 | 0.00 | 0.00 | 0.00 | 43 | 1007.0 |
| 20260506103230 | 72 | 230 | 15.6 | 0.0 | 0.00 | 0.00 | 0.00 | 46 | 1008.0 |
| 20260506102359 | 72 | 230 | 15.6 | 0.0 | 0.00 | 0.00 | 0.00 | 46 | |
| 20260506100236 | 72 | 230 | 14.8 | 0.0 | 0.00 | 0.00 | 0.00 | 49 | 1008.0 |
| 20260506093231 | 70 | 250 | 14.8 | 0.0 | 0.00 | 0.00 | 0.00 | 49 | 1008.0 |
| 20260506092141 | 70 | 230 | 17.4 | 0.0 | 0.00 | 0.00 | 0.00 | 49 | |
| 20260506090234 | 70 | 230 | 15.6 | 0.0 | 0.00 | 0.00 | 0.00 | 52 | 1008.0 |
| 20260506083230 | 68 | 200 | 15.6 | 0.0 | 0.00 | 0.00 | 0.00 | 56 | 1007.0 |
| 20260506082157 | 66 | 220 | 17.4 | 0.0 | 0.00 | 0.00 | 0.00 | 55 | |
| 20260506080241 | 66 | 220 | 17.4 | 0.0 | 0.00 | 0.00 | 0.00 | 55 | 1007.0 |
| 20260506073230 | 66 | 210 | 15.6 | 0.0 | 0.00 | 0.00 | 0.00 | 55 | 1007.0 |
| 20260506072158 | 64 | 210 | 13.9 | 22.6 | 0.00 | 0.00 | 0.00 | 59 | |
| 20260506070240 | 64 | 210 | 13.0 | 0.0 | 0.00 | 0.00 | 0.00 | 59 | 1007.0 |
| 20260506062230 | 63 | 220 | 12.2 | 0.0 | 0.00 | 0.00 | 0.00 | 59 | |
| 20260506060234 | 63 | 220 | 11.3 | 0.0 | 0.00 | 0.00 | 0.00 | 59 | 1007.0 |
| 20260506050239 | 59 | 230 | 8.7 | 0.0 | 0.00 | 0.00 | 0.00 | 67 | 1007.0 |
| 20260506043224 | 57 | 240 | 8.7 | 0.0 | 0.00 | 0.00 | 0.00 | 71 | 1007.0 |
| 20260506042411 | 59 | 210 | 10.4 | 0.0 | 0.00 | 0.00 | 0.00 | 62 | |
| 20260506040235 | 59 | 220 | 10.4 | 0.0 | 0.00 | 0.00 | 0.00 | 62 | 1006.0 |
| 20260506033216 | 59 | 190 | 11.3 | 0.0 | 0.00 | 0.00 | 0.00 | 62 | 1006.0 |
| 20260506032157 | 59 | 190 | 13.9 | 0.0 | 0.00 | 0.00 | 0.00 | 62 | |
| 20260506030234 | 59 | 190 | 12.2 | 0.0 | 0.00 | 0.00 | 0.00 | 62 | 1006.0 |
| 20260506023223 | 59 | 200 | 10.4 | 0.0 | 0.00 | 0.00 | 0.00 | 62 | 1006.0 |
| 20260506022157 | 59 | 210 | 12.2 | 0.0 | 0.00 | 0.00 | 0.00 | 62 | |
| 20260506020235 | 59 | 210 | 11.3 | 0.0 | 0.00 | 0.00 | 0.00 | 62 | 1006.0 |
| 20260506013224 | 61 | 220 | 6.1 | 0.0 | 0.00 | 0.00 | 0.00 | 59 | 1006.0 |
| 20260506012258 | 59 | 230 | 7.8 | 0.0 | 0.00 | 0.00 | 0.00 | 62 | |
| 20260506010234 | 57 | 230 | 7.8 | 0.0 | 0.00 | 0.00 | 0.00 | 67 | 1006.0 |
| 20260506003230 | 61 | 210 | 12.2 | 0.0 | 0.00 | 0.00 | 0.00 | 55 | 1006.0 |
| 20260506002155 | 63 | 210 | 10.4 | 0.0 | 0.00 | 0.00 | 0.00 | 51 | |
| 20260506000235 | 61 | 210 | 7.8 | 0.0 | 0.00 | 0.00 | 0.00 | 59 | 1006.0 |
| 20260505233223 | 63 | 190 | 7.8 | 0.0 | 0.00 | 0.00 | 0.00 | 51 | 1006.0 |
| 20260505232155 | 63 | 200 | 7.8 | 0.0 | 0.00 | 0.00 | 0.00 | 51 | |
| 20260505230241 | 63 | 200 | 8.7 | 0.0 | 0.00 | 0.00 | 0.00 | 51 | 1006.0 |
| 20260505223223 | 64 | 200 | 8.7 | 0.0 | 0.00 | 0.00 | 0.00 | 45 | 1006.0 |
| 20260505222155 | 64 | 200 | 10.4 | 0.0 | 0.00 | 0.00 | 0.00 | 45 | |
| 20260505220235 | 64 | 200 | 10.4 | 0.0 | 0.00 | 0.00 | 0.00 | 45 | 1006.0 |
| 20260505213223 | 64 | 190 | 7.8 | 0.0 | 0.00 | 0.00 | 0.00 | 42 | 1007.0 |
| 20260505212245 | 66 | 190 | 7.8 | 0.0 | 0.00 | 0.00 | 0.00 | 37 | |
| 20260505210246 | 66 | 190 | 7.8 | 0.0 | 0.00 | 0.00 | 0.00 | 39 | 1007.0 |